Girona, Spain

8:36 PM CEST on August 29, 2016 (GMT +0200)
Girona

Weather History for LEGE - November, 2013

Change the Weather History Date:

Thursday, November 14, 2013

  Actual Average Record
Temperature  
Mean Temperature 56 °F -  
Max Temperature 69 °F 58 °F 71 °F (2006)
Min Temperature 41 °F 39 °F 32 °F (2008)
Degree Days  
Heating Degree Days 10    
Growing Degree Days 6 (Base 50)    
Moisture  
Dew Point 43 °F    
Average Humidity 66    
Maximum Humidity 100    
Minimum Humidity 17    
Precipitation  
Precipitation 0.00 in 0.09 in - ()
Sea Level Pressure  
Sea Level Pressure 30.14 in    
Wind  
Wind Speed 2 mph ()    
Max Wind Speed 13 mph    
Max Gust Speed -    
Visibility 6.7 miles    
Events      
Averages and records for this station are not official NWS values.
T = Trace of Precipitation, MM = Missing Value Source: Averaged Metar Reports

Daily Weather History Graph

Daily Weather History Graph

Search for Another Location

Airport or City:

Trip Planner

Search our weather history database for the weather conditions in past years. The results will help you decide how hot, cold, wet, or windy it might be!

Date:

Astronomy

Nov. 14, 2013 Rise Set
Actual Time 7:37 AM CET 5:28 PM CET
Civil Twilight 7:07 AM CET 5:58 PM CET
Nautical Twilight 6:33 AM CET 6:32 PM CET
Astronomical Twilight 6:00 AM CET 7:05 PM CET
Moon 3:43 PM CET (11/14) 4:13 AM CET (11/14)
Length of Visible Light 10h 51m
Length of Day
9h 51m
Waxing Gibbous, 90% of the Moon is Illuminated
Nov 14
Waxing Gibbous
Nov 17
Full
Nov 25
Last Quarter
Dec 3
New
Dec 9
First Quarter

Hourly Weather History & Observations

Time (CET) Temp. Windchill Dew Point Humidity Pressure Visibility Wind Dir Wind Speed Gust Speed Precip Events Conditions
12:00 AM 51 °F - 49 °F 88% 30.14 in - Calm Calm - -  
12:00 AM 50.0 °F - 48.2 °F 94% 30.15 in 6.2 mi Calm Calm - N/A   Partly Cloudy
12:30 AM 50.0 °F - 50.0 °F 100% 30.15 in 6.2 mi Calm Calm - N/A   Partly Cloudy
1:00 AM 51 °F - 49 °F 92% 30.14 in - Calm Calm - -  
1:00 AM 50.0 °F - 50.0 °F 100% 30.15 in 6.2 mi Calm Calm - N/A   Partly Cloudy
1:30 AM 50.0 °F - 48.2 °F 94% 30.15 in 6.2 mi Calm Calm - N/A   Partly Cloudy
2:00 AM 53 °F - 51 °F 91% 30.15 in - North 4.6 mph - -  
2:00 AM 53.6 °F - 51.8 °F 94% 30.15 in 6.2 mi North 3.5 mph - N/A   Partly Cloudy
2:30 AM 53.6 °F - 50.0 °F 88% 30.15 in 6.2 mi Variable 2.3 mph - N/A   Scattered Clouds
3:00 AM 55 °F - 50 °F 78% 30.15 in - North 4.6 mph - -  
3:00 AM 53.6 °F - 50.0 °F 88% 30.15 in 6.2 mi North 3.5 mph - N/A   Scattered Clouds
3:30 AM 55.4 °F - 50.0 °F 82% 30.15 in 6.2 mi NNE 4.6 mph - N/A   Mostly Cloudy
4:00 AM 55.4 °F - 48.2 °F 77% 30.15 in 6.2 mi NNE 5.8 mph - N/A   Mostly Cloudy
4:30 AM 55.4 °F - 48.2 °F 77% 30.15 in 6.2 mi Variable 1.2 mph - N/A   Mostly Cloudy
5:00 AM 55 °F - 48 °F 71% 30.14 in - Calm Calm - -  
5:00 AM 55.4 °F - 48.2 °F 77% 30.15 in 6.2 mi Calm Calm - N/A   Mostly Cloudy
6:00 AM 53 °F - 47 °F 75% 30.14 in - North 3.5 mph - -  
6:00 AM 51.8 °F - 48.2 °F 88% 30.12 in 6.2 mi NW 3.5 mph - N/A   Mostly Cloudy
6:30 AM 51.8 °F - 48.2 °F 88% 30.15 in 6.2 mi NW 3.5 mph - N/A   Partly Cloudy
7:00 AM 51 °F - 48 °F 85% 30.15 in 16 mi NW 3.5 mph - -   Scattered Clouds
7:00 AM 51.8 °F - 48.2 °F 88% 30.15 in 6.2 mi NW 3.5 mph - N/A   Partly Cloudy
7:30 AM 50.0 °F - 46.4 °F 87% 30.15 in 6.2 mi Variable 2.3 mph - N/A   Partly Cloudy
8:00 AM 49 °F - 46 °F 83% 30.16 in - Calm Calm - -  
8:00 AM 48.2 °F - 46.4 °F 93% 30.15 in 6.2 mi Calm Calm - N/A   Partly Cloudy
8:30 AM 48.2 °F - 46.4 °F 93% 30.15 in 6.2 mi Calm Calm - N/A   Partly Cloudy
9:00 AM 51 °F - 48 °F 86% 30.17 in - Calm Calm - -  
9:00 AM 50.0 °F - 48.2 °F 94% 30.18 in 6.2 mi Calm Calm - N/A   Scattered Clouds
9:30 AM 53.6 °F - 50.0 °F 88% 30.18 in 6.2 mi Calm Calm - N/A   Scattered Clouds
10:00 AM 53.6 °F - 50.0 °F 88% 30.18 in 6.2 mi Variable 2.3 mph - N/A   Scattered Clouds
10:30 AM 57.2 °F - 50.0 °F 77% 30.18 in 6.2 mi Calm Calm - N/A   Partly Cloudy
11:00 AM 61 °F - 50 °F 57% 30.17 in - Calm Calm - -  
11:00 AM 59.0 °F - 50.0 °F 72% 30.18 in 6.2 mi Calm Calm - N/A   Partly Cloudy
11:30 AM 60.8 °F - 50.0 °F 68% 30.18 in 6.2 mi Variable 1.2 mph - N/A   Partly Cloudy
12:00 PM 65 °F - 50 °F 49% 30.14 in - SSE 2.3 mph - -  
12:00 PM 62.6 °F - 50.0 °F 63% 30.15 in 6.2 mi Variable 2.3 mph - N/A   Partly Cloudy
12:30 PM 64.4 °F - 51.8 °F 64% 30.15 in 6.2 mi Variable 2.3 mph - N/A   Partly Cloudy
1:00 PM 67 °F - 51 °F 45% 30.12 in 16 mi South 5.8 mph - -   Scattered Clouds
1:00 PM 64.4 °F - 51.8 °F 64% 30.12 in 6.2 mi SSE 3.5 mph - N/A   Partly Cloudy
1:30 PM 64.4 °F - 50.0 °F 59% 30.12 in 6.2 mi South 4.6 mph - N/A   Partly Cloudy
2:00 PM 68 °F - 50 °F 41% 30.10 in - SSE 5.8 mph - -  
2:00 PM 66.2 °F - 48.2 °F 52% 30.12 in 6.2 mi SSE 4.6 mph - N/A   Partly Cloudy
2:30 PM 66.2 °F - 48.2 °F 52% 30.12 in 6.2 mi SE 3.5 mph - N/A   Partly Cloudy
3:00 PM 65 °F - 37 °F 24% 30.10 in - East 11.5 mph - -  
3:00 PM 66.2 °F - 39.2 °F 37% 30.12 in 6.2 mi ESE 8.1 mph - N/A   Scattered Clouds
3:30 PM 60.8 °F - 35.6 °F 39% 30.12 in 6.2 mi NE 12.7 mph - N/A   Mostly Cloudy
4:00 PM 59.0 °F - 35.6 °F 42% 30.12 in 6.2 mi East 6.9 mph - N/A   Scattered Clouds
4:30 PM 59.0 °F - 30.2 °F 34% 30.12 in 6.2 mi ENE 5.8 mph - N/A   Mostly Cloudy
5:00 PM 58 °F - 26 °F 17% 30.14 in - NE 6.9 mph - -  
5:00 PM 57.2 °F - 26.6 °F 31% 30.15 in 6.2 mi NNE 6.9 mph - N/A   Mostly Cloudy
5:30 PM 55.4 °F - 26.6 °F 33% 30.15 in 6.2 mi NNE 3.5 mph - N/A   Mostly Cloudy
6:00 PM 55 °F - 29 °F 24% 30.14 in - WSW 1.2 mph - -  
6:00 PM 55.4 °F - 32.0 °F 41% 30.15 in 6.2 mi Calm Calm - N/A   Mostly Cloudy
6:30 PM 51.8 °F - 30.2 °F 44% 30.12 in 6.2 mi Calm Calm - N/A   Scattered Clouds
7:00 PM 52 °F - 30 °F 30% 30.13 in 12 mi SW 2.3 mph - -   Partly Cloudy
7:00 PM 51.8 °F - 30.2 °F 44% 30.12 in 6.2 mi SW 2.3 mph - N/A   Scattered Clouds
7:30 PM 48.2 °F - 30.2 °F 50% 30.12 in 6.2 mi Calm Calm - N/A   Scattered Clouds
8:00 PM 49 °F - 30 °F 35% 30.11 in - WSW 4.6 mph - -  
8:00 PM 48.2 °F - 30.2 °F 50% 30.12 in 6.2 mi West 3.5 mph - N/A   Scattered Clouds
8:30 PM 48.2 °F - 32.0 °F 54% 30.12 in 6.2 mi Variable 1.2 mph - N/A   Scattered Clouds
9:00 PM 46 °F - 32 °F 45% 30.11 in - WNW 1.2 mph - -  
9:00 PM 46.4 °F - 32.0 °F 57% 30.09 in 6.2 mi West 1.2 mph - N/A   Scattered Clouds
9:30 PM 50.0 °F - 30.2 °F 47% 30.12 in 6.2 mi WNW 2.3 mph - N/A   Scattered Clouds
10:00 PM 42.8 °F - 33.8 °F 70% 30.09 in 6.2 mi Variable 1.2 mph - N/A   Scattered Clouds
10:30 PM 42.8 °F - 32.0 °F 66% 30.09 in 6.2 mi Calm Calm - N/A   Scattered Clouds
11:00 PM 42 °F - 35 °F 66% 30.09 in - West 4.6 mph - -  
11:00 PM 42.8 °F 41.1 °F 33.8 °F 70% 30.09 in 6.2 mi West 3.5 mph - N/A   Scattered Clouds
11:30 PM 41.0 °F - 33.8 °F 76% 30.06 in 6.2 mi Variable 1.2 mph - N/A   Scattered Clouds